Location: Aranbee
(34.0885°N, 118.2342°W)
Time: 05:12:15
(UTC+00:00)

deb Explorer IX - Pass Details

Date: 02 December 2020
Orbit: 536 x 1104 km, 38.8° (Epoch: 17 January)

Event Time Altitude Azimuth Distance (km) Brightness Sun altitude
Rises 03:41:29 0° 290° (WNW) 3,299 ? -36.2°
Reaches altitude 10° 03:44:09 10° 290° (WNW) 2,269 ? -36.8°
Enters shadow 03:45:59 21° 289° (WNW) 1,578 ? -37.2°
